Voltar ao catálogo

CZ-4B R/B

AtivoPO
NORAD 38039·ROCKET BODY·🇨🇳 China

Lançado Dec 22, 2011 de Taiyuan Satellite Launch Center

Loading…

Próximas Passagens (próximas 24 horas)

TLE

AtualizadoSource: Space-Track

Época: Sep 14, 2026, 13:40 UTC

1 38039U 11079B   26257.57005634  .00003127  00000-0  13590-3 0  9997
2 38039  98.4564 106.9720 0122525  58.7931 302.5239 15.16635263803379

Acompanhe CZ-4B R/B em tempo real com AllMySat

Download on the App Store